{"data":{"norad_id":50504,"intl_designator":"2021-132AM","name":"ONEWEB-0450","alt_names":[],"object_type":"PAYLOAD","status":"ACTIVE","operator":null,"country":"UK","launch_date":"2021-12-27","launch_site_code":"TYMSC","launch_vehicle":null,"mission":null,"orbit_class":"UNKNOWN","rcs_meters":null,"size_class":null,"mass_kg":null,"dimensions":null,"purposes":["comms"],"wikipedia_slug":null,"has_3d_model":false,"image_url":null,"decayed_at":null,"tle_current":{"epoch":"2026-05-25T01:07:38.701344Z","epoch_age_seconds":71810,"freshness":"FRESH","line1":"1 50504U 21132AM  26145.04697571  .00000056  00000+0  11015-3 0  9991","line2":"2 50504  87.9159 340.0656 0001644  85.1555 274.9765 13.18686609218552","mean_motion":13.18686609,"eccentricity":0.0001644,"inclination_deg":87.9159,"raan_deg":340.0656,"arg_perigee_deg":85.1555,"mean_anomaly_deg":274.9765,"bstar":0.00011015,"rev_number":21855,"period_min":109.19956191047,"perigee_km":1188.4966377422,"apogee_km":1190.9849559618,"semimajor_km":7567.877796852,"source":"CELESTRAK","updated_at":"2026-05-25T13:38:22.575327Z"}}}